Time,TemperatureF,DewpointF,PressureIn,WindDirection,WindDirectionDegrees,WindSpeedMPH,WindSpeedGustMPH,Humidity,HourlyPrecipIn,Conditions,Clouds,dailyrainin,SoftwareType,DateUTC
2013-05-26 00:14:00,82.1,77.0,29.93,East,88,6.0,14.0,84,0.00,,,0.00,weatherlink.com 1.10,2013-05-26 04:14:00,
2013-05-26 00:29:00,82.2,77.0,29.92,East,90,7.0,16.0,84,0.00,,,0.00,weatherlink.com 1.10,2013-05-26 04:29:00,
2013-05-26 00:44:00,82.1,77.0,29.92,ENE,73,3.0,16.0,84,0.00,,,0.00,weatherlink.com 1.10,2013-05-26 04:44:00,
2013-05-26 01:00:00,82.1,77.0,29.91,ENE,61,4.0,11.0,84,0.00,,,0.00,weatherlink.com 1.10,2013-05-26 05:00:00,
2013-05-26 01:15:00,82.1,77.0,29.91,East,86,8.0,15.0,84,0.00,,,0.00,weatherlink.com 1.10,2013-05-26 05:15:00,
2013-05-26 01:30:00,82.1,77.0,29.90,SE,135,4.0,17.0,84,0.00,,,0.00,weatherlink.com 1.10,2013-05-26 05:30:00,
2013-05-26 01:45:00,82.1,77.0,29.90,East,100,3.0,15.0,84,0.00,,,0.00,weatherlink.com 1.10,2013-05-26 05:45:00,
2013-05-26 02:00:00,81.8,77.0,29.90,East,80,5.0,13.0,85,0.00,,,0.00,weatherlink.com 1.10,2013-05-26 06:00:00,
2013-05-26 02:15:00,81.6,77.0,29.90,East,100,3.0,15.0,85,0.00,,,0.00,weatherlink.com 1.10,2013-05-26 06:15:00,
2013-05-26 02:30:00,81.6,77.0,29.89,East,98,11.0,13.0,85,0.00,,,0.00,weatherlink.com 1.10,2013-05-26 06:30:00,
2013-05-26 02:45:00,81.8,77.0,29.89,ESE,107,5.0,16.0,84,0.00,,,0.00,weatherlink.com 1.10,2013-05-26 06:45:00,
2013-05-26 03:00:00,81.8,77.0,29.88,ENE,76,4.0,13.0,84,0.00,,,0.00,weatherlink.com 1.10,2013-05-26 07:00:00,
2013-05-26 03:15:00,81.8,77.0,29.88,ESE,103,8.0,13.0,84,0.00,,,0.00,weatherlink.com 1.10,2013-05-26 07:15:00,
2013-05-26 03:30:00,81.9,76.0,29.88,ESE,116,7.0,12.0,83,0.00,,,0.00,weatherlink.com 1.10,2013-05-26 07:30:00,
2013-05-26 03:45:00,81.9,77.0,29.87,ESE,119,5.0,11.0,84,0.00,,,0.00,weatherlink.com 1.10,2013-05-26 07:45:00,
2013-05-26 04:00:00,81.6,76.0,29.87,ESE,112,10.0,15.0,83,0.00,,,0.00,weatherlink.com 1.10,2013-05-26 08:00:00,
2013-05-26 04:15:00,81.7,76.0,29.86,SE,125,6.0,16.0,83,0.00,,,0.00,weatherlink.com 1.10,2013-05-26 08:15:00,
2013-05-26 04:30:00,81.6,76.0,29.86,East,92,3.0,14.0,84,0.00,,,0.00,weatherlink.com 1.10,2013-05-26 08:30:00,
2013-05-26 04:45:00,81.6,77.0,29.87,ESE,105,3.0,13.0,86,0.00,,,0.00,weatherlink.com 1.10,2013-05-26 08:45:00,
2013-05-26 05:00:00,81.2,77.0,29.87,East,96,6.0,14.0,86,0.00,,,0.00,weatherlink.com 1.10,2013-05-26 09:00:00,
2013-05-26 05:15:00,81.4,76.0,29.87,East,84,7.0,15.0,84,0.00,,,0.00,weatherlink.com 1.10,2013-05-26 09:15:00,
2013-05-26 05:30:00,81.4,76.0,29.87,ESE,103,5.0,14.0,84,0.00,,,0.00,weatherlink.com 1.10,2013-05-26 09:30:00,
2013-05-26 05:45:00,81.4,77.0,29.86,ESE,106,11.0,13.0,85,0.00,,,0.00,weatherlink.com 1.10,2013-05-26 09:45:00,
2013-05-26 06:00:00,81.5,77.0,29.87,East,82,8.0,12.0,85,0.00,,,0.00,weatherlink.com 1.10,2013-05-26 10:00:00,
2013-05-26 06:15:00,81.5,76.0,29.87,ESE,109,5.0,15.0,83,0.00,,,0.00,weatherlink.com 1.10,2013-05-26 10:15:00,
2013-05-26 06:30:00,81.6,76.0,29.88,East,88,13.0,13.0,84,0.00,,,0.00,weatherlink.com 1.10,2013-05-26 10:30:00,
2013-05-26 06:45:00,81.7,76.0,29.88,ENE,78,2.0,14.0,83,0.00,,,0.00,weatherlink.com 1.10,2013-05-26 10:45:00,
2013-05-26 07:00:00,82.0,77.0,29.89,East,86,9.0,16.0,84,0.00,,,0.00,weatherlink.com 1.10,2013-05-26 11:00:00,
2013-05-26 07:15:00,82.8,76.0,29.90,ESE,121,11.0,16.0,81,0.00,,,0.00,weatherlink.com 1.10,2013-05-26 11:15:00,
2013-05-26 07:30:00,83.6,77.0,29.91,East,80,5.0,12.0,81,0.00,,,0.00,weatherlink.com 1.10,2013-05-26 11:30:00,
2013-05-26 07:45:00,83.2,77.0,29.91,ESE,103,5.0,19.0,82,0.00,,,0.00,weatherlink.com 1.10,2013-05-26 11:45:00,
2013-05-26 08:00:00,83.9,77.0,29.91,ESE,115,5.0,18.0,80,0.00,,,0.00,weatherlink.com 1.10,2013-05-26 12:00:00,
2013-05-26 08:15:00,84.6,77.0,29.91,ESE,107,10.0,16.0,78,0.00,,,0.00,weatherlink.com 1.10,2013-05-26 12:15:00,
2013-05-26 08:30:00,84.6,77.0,29.92,East,86,6.0,16.0,79,0.00,,,0.00,weatherlink.com 1.10,2013-05-26 12:30:00,
2013-05-26 08:45:00,84.9,77.0,29.92,East,84,8.0,18.0,78,0.00,,,0.00,weatherlink.com 1.10,2013-05-26 12:45:00,
2013-05-26 09:00:00,85.2,77.0,29.92,ESE,121,9.0,17.0,77,0.00,,,0.00,weatherlink.com 1.10,2013-05-26 13:00:00,
2013-05-26 09:15:00,85.7,77.0,29.93,East,94,7.0,16.0,76,0.00,,,0.00,weatherlink.com 1.10,2013-05-26 13:15:00,
2013-05-26 09:30:00,85.8,77.0,29.94,SE,126,9.0,18.0,75,0.00,,,0.00,weatherlink.com 1.10,2013-05-26 13:30:00,
2013-05-26 09:45:00,85.8,77.0,29.94,ESE,112,8.0,18.0,75,0.00,,,0.00,weatherlink.com 1.10,2013-05-26 13:45:00,
2013-05-26 10:00:00,85.9,78.0,29.94,SE,128,7.0,16.0,76,0.00,,,0.00,weatherlink.com 1.10,2013-05-26 14:00:00,
2013-05-26 10:15:00,85.6,78.0,29.94,SE,140,7.0,17.0,77,0.00,,,0.00,weatherlink.com 1.10,2013-05-26 14:15:00,
2013-05-26 10:30:00,86.5,77.0,29.94,SE,126,12.0,21.0,74,0.00,,,0.00,weatherlink.com 1.10,2013-05-26 14:30:00,
2013-05-26 10:45:00,87.0,78.0,29.93,ESE,105,13.0,19.0,74,0.00,,,0.00,weatherlink.com 1.10,2013-05-26 14:45:00,
2013-05-26 11:01:00,86.9,77.0,29.93,ENE,78,5.0,22.0,73,0.00,,,0.00,weatherlink.com 1.10,2013-05-26 15:01:00,
2013-05-26 11:16:00,86.3,78.0,29.93,ENE,65,11.0,18.0,76,0.00,,,0.00,weatherlink.com 1.10,2013-05-26 15:16:00,
2013-05-26 11:31:00,86.4,78.0,29.93,SE,126,9.0,19.0,76,0.00,,,0.00,weatherlink.com 1.10,2013-05-26 15:31:00,
2013-05-26 11:46:00,86.5,78.0,29.93,NE,46,10.0,17.0,76,0.00,,,0.00,weatherlink.com 1.10,2013-05-26 15:46:00,
2013-05-26 12:01:00,87.0,79.0,29.92,SE,126,6.0,15.0,76,0.00,,,0.00,weatherlink.com 1.10,2013-05-26 16:01:00,
2013-05-26 12:16:00,87.4,78.0,29.92,SSE,154,7.0,21.0,74,0.00,,,0.00,weatherlink.com 1.10,2013-05-26 16:16:00,
2013-05-26 12:31:00,87.5,78.0,29.92,SE,125,6.0,19.0,74,0.00,,,0.00,weatherlink.com 1.10,2013-05-26 16:31:00,
2013-05-26 12:46:00,86.5,78.0,29.91,ESE,103,9.0,16.0,76,0.00,,,0.00,weatherlink.com 1.10,2013-05-26 16:46:00,
2013-05-26 13:01:00,86.0,78.0,29.91,ENE,67,13.0,14.0,76,0.00,,,0.00,weatherlink.com 1.10,2013-05-26 17:01:00,
2013-05-26 13:16:00,86.8,78.0,29.91,East,93,5.0,17.0,74,0.00,,,0.00,weatherlink.com 1.10,2013-05-26 17:16:00,
2013-05-26 13:31:00,87.3,78.0,29.90,East,96,13.0,17.0,74,0.00,,,0.00,weatherlink.com 1.10,2013-05-26 17:31:00,
2013-05-26 13:46:00,87.6,78.0,29.89,ENE,78,10.0,18.0,73,0.00,,,0.00,weatherlink.com 1.10,2013-05-26 17:46:00,
2013-05-26 14:01:00,87.4,78.0,29.88,ESE,104,8.0,18.0,74,0.00,,,0.00,weatherlink.com 1.10,2013-05-26 18:01:00,
2013-05-26 14:16:00,87.6,78.0,29.88,NE,55,5.0,23.0,73,0.00,,,0.00,weatherlink.com 1.10,2013-05-26 18:16:00,
2013-05-26 14:31:00,87.4,78.0,29.87,SE,129,15.0,22.0,74,0.00,,,0.00,weatherlink.com 1.10,2013-05-26 18:31:00,
2013-05-26 14:46:00,87.1,78.0,29.87,East,89,7.0,22.0,74,0.00,,,0.00,weatherlink.com 1.10,2013-05-26 18:46:00,
2013-05-26 15:01:00,87.5,78.0,29.87,ESE,105,9.0,16.0,74,0.00,,,0.00,weatherlink.com 1.10,2013-05-26 19:01:00,
2013-05-26 15:16:00,87.0,78.0,29.86,East,92,6.0,20.0,75,0.00,,,0.00,weatherlink.com 1.10,2013-05-26 19:16:00,
2013-05-26 15:31:00,86.1,78.0,29.86,NE,50,5.0,19.0,77,0.00,,,0.00,weatherlink.com 1.10,2013-05-26 19:31:00,
2013-05-26 15:46:00,86.3,76.0,29.86,East,96,11.0,22.0,72,0.00,,,0.00,weatherlink.com 1.10,2013-05-26 19:46:00,
2013-05-26 16:01:00,85.9,77.0,29.86,ESE,111,8.0,23.0,75,0.00,,,0.00,weatherlink.com 1.10,2013-05-26 20:01:00,
2013-05-26 16:16:00,86.0,78.0,29.85,NE,53,8.0,19.0,76,0.00,,,0.00,weatherlink.com 1.10,2013-05-26 20:16:00,
2013-05-26 16:31:00,86.2,78.0,29.85,ENE,60,14.0,22.0,76,0.00,,,0.00,weatherlink.com 1.10,2013-05-26 20:31:00,
2013-05-26 16:46:00,86.0,77.0,29.85,ENE,76,10.0,22.0,75,0.00,,,0.00,weatherlink.com 1.10,2013-05-26 20:46:00,
2013-05-26 17:01:00,85.2,77.0,29.85,NNE,32,5.0,23.0,76,0.00,,,0.00,weatherlink.com 1.10,2013-05-26 21:01:00,
2013-05-26 17:16:00,85.5,78.0,29.85,East,92,9.0,19.0,77,0.00,,,0.00,weatherlink.com 1.10,2013-05-26 21:16:00,
2013-05-26 17:31:00,84.6,77.0,29.85,East,90,7.0,19.0,77,0.00,,,0.00,weatherlink.com 1.10,2013-05-26 21:31:00,
2013-05-26 17:46:00,84.5,77.0,29.85,East,93,11.0,19.0,77,0.00,,,0.00,weatherlink.com 1.10,2013-05-26 21:46:00,
2013-05-26 18:01:00,84.1,77.0,29.85,East,89,14.0,17.0,78,0.00,,,0.00,weatherlink.com 1.10,2013-05-26 22:01:00,
2013-05-26 18:16:00,83.7,77.0,29.86,East,99,9.0,19.0,79,0.00,,,0.00,weatherlink.com 1.10,2013-05-26 22:16:00,
2013-05-26 18:31:00,83.4,77.0,29.86,NE,53,8.0,19.0,81,0.00,,,0.00,weatherlink.com 1.10,2013-05-26 22:31:00,
2013-05-26 18:46:00,83.1,77.0,29.86,East,80,7.0,18.0,82,0.00,,,0.00,weatherlink.com 1.10,2013-05-26 22:46:00,
2013-05-26 19:01:00,82.8,77.0,29.86,NE,54,10.0,16.0,82,0.00,,,0.00,weatherlink.com 1.10,2013-05-26 23:01:00,
2013-05-26 19:16:00,82.7,77.0,29.87,East,88,9.0,14.0,82,0.00,,,0.00,weatherlink.com 1.10,2013-05-26 23:16:00,
2013-05-26 19:31:00,82.6,77.0,29.87,ENE,59,4.0,18.0,83,0.00,,,0.00,weatherlink.com 1.10,2013-05-26 23:31:00,
2013-05-26 19:46:00,82.5,77.0,29.88,ENE,69,9.0,13.0,83,0.00,,,0.00,weatherlink.com 1.10,2013-05-26 23:46:00,
2013-05-26 20:01:00,82.4,77.0,29.88,NE,49,8.0,16.0,83,0.00,,,0.00,weatherlink.com 1.10,2013-05-27 00:01:00,
2013-05-26 20:16:00,82.4,77.0,29.88,East,89,10.0,16.0,83,0.00,,,0.00,weatherlink.com 1.10,2013-05-27 00:16:00,
2013-05-26 20:31:00,82.3,77.0,29.88,ENE,71,9.0,15.0,83,0.00,,,0.00,weatherlink.com 1.10,2013-05-27 00:31:00,
2013-05-26 20:46:00,82.4,77.0,29.89,ENE,65,8.0,17.0,83,0.00,,,0.00,weatherlink.com 1.10,2013-05-27 00:46:00,
2013-05-26 21:01:00,82.5,77.0,29.90,NE,53,10.0,17.0,84,0.00,,,0.00,weatherlink.com 1.10,2013-05-27 01:01:00,
2013-05-26 21:16:00,82.3,77.0,29.90,ENE,59,7.0,17.0,84,0.00,,,0.00,weatherlink.com 1.10,2013-05-27 01:16:00,
2013-05-26 21:31:00,82.3,77.0,29.90,ENE,64,7.0,14.0,85,0.00,,,0.00,weatherlink.com 1.10,2013-05-27 01:31:00,
2013-05-26 21:46:00,82.3,77.0,29.89,NNE,33,5.0,12.0,85,0.00,,,0.00,weatherlink.com 1.10,2013-05-27 01:46:00,
2013-05-26 22:01:00,82.0,77.0,29.89,ENE,71,3.0,11.0,85,0.00,,,0.00,weatherlink.com 1.10,2013-05-27 02:01:00,
2013-05-26 22:16:00,81.8,77.0,29.89,ENE,63,5.0,11.0,84,0.00,,,0.00,weatherlink.com 1.10,2013-05-27 02:16:00,
2013-05-26 22:31:00,81.8,77.0,29.90,ENE,64,4.0,13.0,84,0.00,,,0.00,weatherlink.com 1.10,2013-05-27 02:31:00,
2013-05-26 22:46:00,81.9,77.0,29.91,NE,41,4.0,13.0,84,0.00,,,0.00,weatherlink.com 1.10,2013-05-27 02:46:00,
2013-05-26 23:01:00,81.8,77.0,29.91,ENE,67,5.0,15.0,85,0.00,,,0.00,weatherlink.com 1.10,2013-05-27 03:01:00,
2013-05-26 23:16:00,81.6,77.0,29.91,NE,42,8.0,14.0,87,0.00,,,0.00,weatherlink.com 1.10,2013-05-27 03:16:00,
2013-05-26 23:31:00,81.6,77.0,29.91,ENE,73,2.0,12.0,86,0.00,,,0.00,weatherlink.com 1.10,2013-05-27 03:31:00,
2013-05-26 23:46:00,81.6,77.0,29.92,NE,55,8.0,14.0,85,0.00,,,0.00,weatherlink.com 1.10,2013-05-27 03:46:00,